Regional Weather Roundup
Issued by NWS Glasgow, MT

Home | Current Version | Previous Version | Text Only | Print | Product List | Glossary On
Versions: 1 2 3 4 5 6 7 8 9 10 11 12 13 14 15 16 17 18 19 20 21 22 23 24 25 26 27 28 29 30 31 32 33 34 35 36 37 38 39 40 41 42 43 44 45 46 47 48 49 50
000
ASUS45 KGGW 211515
RWRGGW
HOURLY WEATHER ROUNDUP FOR NORTHEAST MONTANA
NATIONAL WEATHER SERVICE GLASGOW MONTANA
900 AM MDT TUE OCT 21 2014

NOTE: "FAIR" INDICATES FEW OR NO CLOUDS BELOW 12,000 FEET WITH NO
SIGNIFICANT WEATHER AND/OR OBSTRUCTIONS TO VISISBILITY.

NORTHEAST MONTANA


CITY           SKY/WX    TMP DP  RH WIND       PRES   REMARKS
GLASGOW        MOSUNNY   50  40  68 E15       29.66S
PLENTYWOOD       N/A     49  41  74 SE3         N/A
WOLF POINT     SUNNY     43  39  86 E6        29.70F
JORDAN           N/A     45  35  68 CALM      29.67F
WINNETT          N/A     52  36  54 E3          N/A
SIDNEY         SUNNY     45  39  81 CALM      29.74F
GLENDIVE       SUNNY     45  41  87 CALM      29.73S
MALTA            N/A     44  40  85 NE2         N/A
SCOBEY           N/A     38  33  82 CALM      29.70F

FORT PECK REPORTS


CITY           SKY/WX    TMP DP  RH WIND       PRES   REMARKS
FORT PECK        N/A     58  45  62 E7          N/A
THE PINES        N/A     56  45  66 S2          N/A

SOUTHEAST MONTANA


CITY           SKY/WX    TMP DP  RH WIND       PRES   REMARKS
BILLINGS       MOSUNNY   54  29  38 SW15      29.73S
MILES CITY     SUNNY     44  37  76 SE5       29.71S
BAKER          SUNNY     49  42  77 SE7       29.74F
LIVINGSTON     PTSUNNY   62  37  39 SW16      29.77S

CENTRAL MONTANA


CITY           SKY/WX    TMP DP  RH WIND       PRES   REMARKS
HAVRE          PTSUNNY   42  38  85 CALM      29.63S
LEWISTOWN      MOSUNNY   56  38  50 E5        29.69F
GREAT FALLS    LGT RAIN  50  38  63 N3        29.66R
CUT BANK       NOT AVBL
HELENA         CLOUDY    47  36  65 CALM      29.70F
BUTTE          MOCLDY    53  39  59 SW10      29.75F
BOZEMAN        CLOUDY    50  39  66 S9        29.76R

WESTERN MONTANA


CITY           SKY/WX    TMP DP  RH WIND       PRES   REMARKS
MISSOULA       RAIN      47  47 100 NW6       29.86  FOG
KALISPELL      NOT AVBL

NORTH DAKOTA


CITY           SKY/WX    TMP DP  RH WIND       PRES   REMARKS
WILLISTON      SUNNY     51  39  63 CALM      29.74S
DICKINSON      SUNNY     47  39  74 SE12      29.74F
MINOT          SUNNY     52  38  58 SE7       29.79F
BISMARCK       SUNNY     55  39  54 SE9       29.83S

SOUTHERN SASKATCHEWAN


CITY           SKY/WX    TMP DP  RH WIND       PRES   REMARKS
REGINA         SUNNY     45  41  87 SE13      29.69S
MOOSE JAW      MOSUNNY   43  39  87 SE8       29.65F
ESTEVAN        MOSUNNY   45  37  76 E9        29.75S
SWIFT CURRENT  MOSUNNY   54  41  62 S12       29.61F




USA.gov is the U.S. government's official web portal to all federal, state and local government web resources and services.